Location: Newark
(33.6439°N, 114.9881°W)
Time: 15:58:03
(UTC+00:00)

Hubble Space Telescope - Visible Passes

Search period start: 22 October 2019 00:00
Search period end: 01 November 2019 00:00
Orbit: 536 x 540 km, 28.5° (Epoch: 21 October)

Date Brightness Start Highest point End Pass type
(mag) Time Alt. Az. Time Alt. Az. Time Alt. Az.
25 Oct 3.5 13:22:30 10° S 13:24:15 12° SSE 13:26:00 10° SE visible
26 Oct 3.4 13:11:07 10° SSW 13:13:34 15° SSE 13:16:01 10° ESE visible
27 Oct 3.1 13:00:01 10° SSW 13:02:54 18° SSE 13:05:48 10° ESE visible
28 Oct 2.8 12:49:02 10° SW 12:52:14 22° SSE 12:55:26 10° ESE visible
29 Oct 2.5 12:38:50 13° SW 12:41:35 25° SSE 12:45:01 10° ESE visible
30 Oct 2.3 12:29:07 20° SSW 12:30:56 29° SSE 12:34:32 10° ESE visible
31 Oct 2.0 12:19:20 28° SSW 12:20:19 32° S 12:24:01 10° ESE visible
